QPF
0.00 0.00 0.00 0.00 0.00 0.00 0.00 0.00 0.00 0.00 0.00 0.00 0.00 0.00 0.00 0.00 0.00 0.01 0.00 0.00 0.00 0.00 0.00 0.01 0.01 0.01 0.01 0.01 0.01 0.01 0.01 0.01 0.01 0.00 0.01 0.01 0.01 0.02 0.02 0.03 0.02 0.03 0.05 0.05 0.04 0.05 0.05 0.05 0.04
0.00 0.00 0.00 0.00 0.00 0.00 0.00 0.00 0.00 0.00 0.00 0.00 0.00 0.00 0.00 0.00 0.00 0.00 0.00 0.00 0.00 0.00 0.00 0.01 0.01 0.01 0.00 0.01 0.01 0.01 0.01 0.01 0.01 0.01 0.01 0.01 0.01 0.01 0.02 0.03 0.03 0.04 0.06 0.06 0.05 0.05 0.04 0.03 0.02
0.00 0.00 0.00 0.00 0.00 0.00 0.00 0.00 0.00 0.00 0.00 0.00 0.00 0.00 0.00 0.00 0.00 0.00 0.00 0.00 0.00 0.00 0.00 0.01 0.01 0.01 0.01 0.01 0.01 0.01 0.01 0.01 0.01 0.01 0.01 0.01 0.02 0.02 0.03 0.04 0.05 0.05 0.07 0.07 0.05 0.04 0.03 0.03 0.03
0.00 0.00 0.00 0.00 0.00 0.00 0.00 0.00 0.00 0.00 0.00 0.00 0.00 0.00 0.00 0.00 0.00 0.00 0.00 0.00 0.00 0.00 0.00 0.01 0.01 0.02 0.02 0.01 0.01 0.01 0.01 0.01 0.01 0.01 0.01 0.01 0.02 0.03 0.05 0.05 0.05 0.04 0.04 0.05 0.06 0.04 0.04 0.03 0.04
0.00 0.00 0.00 0.00 0.00 0.00 0.00 0.00 0.00 0.00 0.00 0.00 0.00 0.00 0.00 0.00 0.00 0.00 0.00 0.00 0.00 0.00 0.00 0.01 0.01 0.02 0.02 0.02 0.01 0.01 0.01 0.01 0.01 0.01 0.01 0.02 0.03 0.04 0.05 0.05 0.03 0.04 0.04 0.06 0.05 0.05 0.04 0.04 0.06
0.00 0.00 0.00 0.00 0.00 0.00 0.00 0.00 0.00 0.00 0.00 0.00 0.00 0.00 0.00 0.00 0.00 0.00 0.00 0.00 0.00 0.00 0.00 0.01 0.01 0.01 0.02 0.02 0.01 0.01 0.01 0.01 0.01 0.01 0.02 0.03 0.03 0.03 0.04 0.03 0.04 0.04 0.04 0.05 0.05 0.05 0.04 0.05 0.05
0.00 0.00 0.00 0.00 0.00 0.00 0.00 0.00 0.00 0.00 0.00 0.00 0.00 0.00 0.00 0.00 0.00 0.00 0.00 0.00 0.01 0.00 0.00 0.01 0.01 0.01 0.01 0.02 0.02 0.01 0.01 0.01 0.02 0.02 0.02 0.03 0.02 0.03 0.03 0.04 0.04 0.03 0.04 0.04 0.04 0.03 0.03 0.04 0.04
0.00 0.00 0.00 0.00 0.00 0.00 0.00 0.00 0.00 0.00 0.00 0.00 0.00 0.00 0.00 0.00 0.00 0.00 0.00 0.01 0.02 0.01 0.01 0.00 0.00 0.01 0.01 0.01 0.02 0.02 0.02 0.01 0.02 0.02 0.02 0.03 0.03 0.03 0.03 0.05 0.05 0.03 0.03 0.03 0.04 0.04 0.03 0.03 0.04
0.00 0.00 0.00 0.00 0.00 0.00 0.00 0.00 0.00 0.00 0.00 0.00 0.00 0.00 0.00 0.00 0.00 0.00 0.01 0.01 0.01 0.01 0.01 0.01 0.01 0.01 0.01 0.01 0.01 0.03 0.02 0.01 0.02 0.03 0.03 0.06 0.07 0.05 0.05 0.03 0.03 0.02 0.03 0.04 0.05 0.05 0.03 0.02 0.03
0.00 0.00 0.00 0.00 0.00 0.00 0.00 0.00 0.00 0.00 0.00 0.00 0.00 0.00 0.00 0.00 0.00 0.00 0.00 0.00 0.00 0.01 0.01 0.01 0.01 0.01 0.01 0.01 0.02 0.04 0.02 0.02 0.03 0.05 0.06 0.06 0.06 0.06 0.04 0.03 0.03 0.03 0.03 0.04 0.05 0.04 0.02 0.03 0.04
0.00 0.00 0.00 0.00 0.00 0.00 0.00 0.00 0.00 0.00 0.00 0.00 0.00 0.00 0.00 0.00 0.00 0.00 0.00 0.01 0.02 0.02 0.01 0.01 0.01 0.01 0.02 0.02 0.03 0.03 0.03 0.03 0.03 0.03 0.04 0.05 0.04 0.04 0.04 0.04 0.04 0.05 0.03 0.03 0.02 0.02 0.02 0.02 0.04
0.00 0.00 0.00 0.00 0.00 0.00 0.00 0.00 0.00 0.00 0.00 0.00 0.00 0.00 0.00 0.00 0.00 0.00 0.00 0.01 0.04 0.03 0.01 0.01 0.02 0.03 0.03 0.02 0.02 0.03 0.03 0.02 0.02 0.02 0.03 0.03 0.03 0.03 0.04 0.04 0.04 0.04 0.04 0.04 0.02 0.04 0.04 0.03 0.02
0.00 0.00 0.00 0.00 0.00 0.00 0.00 0.00 0.00 0.00 0.00 0.00 0.00 0.00 0.00 0.00 0.00 0.00 0.00 0.01 0.03 0.03 0.02 0.02 0.03 0.04 0.04 0.03 0.03 0.02 0.02 0.02 0.02 0.02 0.02 0.02 0.02 0.02 0.04 0.03 0.03 0.02 0.01 0.02 0.03 0.03 0.04 0.03 0.02
0.00 0.00 0.00 0.00 0.00 0.00 0.00 0.00 0.00 0.00 0.00 0.00 0.00 0.00 0.00 0.00 0.00 0.00 0.01 0.03 0.04 0.05 0.04 0.03 0.06 0.07 0.06 0.05 0.04 0.04 0.03 0.03 0.02 0.02 0.02 0.02 0.02 0.02 0.03 0.03 0.03 0.02 0.01 0.01 0.02 0.03 0.05 0.04 0.03
0.00 0.00 0.00 0.00 0.00 0.00 0.00 0.00 0.00 0.00 0.00 0.00 0.00 0.00 0.00 0.00 0.00 0.01 0.02 0.04 0.06 0.09 0.08 0.08 0.12 0.08 0.08 0.10 0.08 0.06 0.05 0.04 0.04 0.03 0.02 0.02 0.03 0.03 0.03 0.03 0.03 0.04 0.03 0.03 0.03 0.03 0.04 0.05 0.04
0.00 0.00 0.00 0.00 0.00 0.00 0.00 0.00 0.00 0.00 0.00 0.00 0.00 0.00 0.00 0.00 0.01 0.01 0.02 0.03 0.07 0.12 0.15 0.16 0.12 0.09 0.13 0.15 0.09 0.05 0.05 0.05 0.06 0.05 0.04 0.03 0.03 0.03 0.03 0.02 0.03 0.04 0.04 0.04 0.06 0.05 0.06 0.07 0.06
0.00 0.00 0.00 0.00 0.00 0.00 0.00 0.00 0.00 0.00 0.00 0.00 0.00 0.00 0.00 0.01 0.01 0.01 0.02 0.05 0.10 0.12 0.17 0.14 0.10 0.10 0.14 0.17 0.10 0.06 0.07 0.07 0.06 0.06 0.07 0.05 0.04 0.04 0.04 0.03 0.04 0.04 0.05 0.05 0.04 0.05 0.06 0.08 0.08
0.00 0.00 0.00 0.00 0.00 0.00 0.00 0.00 0.00 0.00 0.00 0.00 0.00 0.00 0.01 0.01 0.01 0.01 0.02 0.08 0.07 0.06 0.08 0.07 0.08 0.10 0.14 0.16 0.10 0.07 0.08 0.07 0.05 0.05 0.09 0.08 0.05 0.04 0.06 0.05 0.04 0.05 0.07 0.07 0.07 0.07 0.08 0.09 0.09
0.00 0.00 0.00 0.00 0.00 0.00 0.00 0.00 0.00 0.00 0.00 0.00 0.01 0.00 0.00 0.01 0.01 0.02 0.04 0.06 0.04 0.05 0.06 0.06 0.06 0.09 0.11 0.12 0.12 0.09 0.08 0.09 0.07 0.05 0.07 0.07 0.05 0.05 0.07 0.06 0.07 0.07 0.07 0.08 0.08 0.06 0.07 0.07 0.07
0.00 0.00 0.00 0.00 0.00 0.00 0.00 0.00 0.00 0.00 0.00 0.00 0.00 0.00 0.00 0.00 0.01 0.02 0.03 0.03 0.02 0.04 0.06 0.05 0.08 0.10 0.10 0.09 0.10 0.10 0.09 0.10 0.08 0.08 0.07 0.07 0.08 0.08 0.07 0.08 0.09 0.08 0.08 0.08 0.09 0.08 0.07 0.07 0.08
0.00 0.00 0.00 0.00 0.00 0.00 0.00 0.00 0.00 0.00 0.00 0.00 0.00 0.00 0.00 0.00 0.01 0.02 0.02 0.03 0.02 0.03 0.05 0.06 0.08 0.11 0.10 0.10 0.09 0.09 0.10 0.13 0.10 0.07 0.08 0.09 0.11 0.11 0.09 0.09 0.10 0.09 0.07 0.08 0.09 0.08 0.09 0.09 0.09
0.00 0.00 0.00 0.00 0.00 0.00 0.00 0.00 0.00 0.00 0.00 0.00 0.00 0.00 0.00 0.00 0.01 0.01 0.01 0.02 0.02 0.03 0.04 0.04 0.05 0.06 0.07 0.08 0.08 0.10 0.09 0.10 0.09 0.09 0.10 0.10 0.11 0.13 0.12 0.10 0.11 0.10 0.08 0.09 0.08 0.07 0.09 0.10 0.08
0.00 0.00 0.00 0.00 0.00 0.00 0.00 0.00 0.00 0.00 0.00 0.00 0.00 0.00 0.00 0.00 0.01 0.01 0.01 0.01 0.01 0.02 0.02 0.03 0.04 0.04 0.06 0.07 0.08 0.09 0.09 0.10 0.12 0.15 0.16 0.16 0.13 0.13 0.13 0.11 0.12 0.12 0.10 0.10 0.09 0.10 0.10 0.09 0.09
0.00 0.00 0.00 0.00 0.00 0.00 0.00 0.00 0.00 0.00 0.00 0.00 0.00 0.00 0.00 0.00 0.00 0.01 0.01 0.00 0.01 0.02 0.02 0.02 0.03 0.04 0.04 0.06 0.10 0.13 0.12 0.11 0.12 0.15 0.16 0.17 0.14 0.11 0.10 0.11 0.11 0.11 0.10 0.11 0.11 0.12 0.11 0.11 0.10
0.00 0.00 0.00 0.00 0.00 0.00 0.00 0.00 0.00 0.00 0.00 0.00 0.00 0.00 0.00 0.00 0.00 0.00 0.00 0.00 0.01 0.01 0.02 0.01 0.02 0.04 0.05 0.06 0.07 0.11 0.11 0.11 0.09 0.12 0.13 0.13 0.11 0.10 0.09 0.09 0.11 0.10 0.11 0.10 0.10 0.11 0.11 0.11 0.11
0.00 0.00 0.00 0.00 0.00 0.00 0.00 0.00 0.00 0.00 0.00 0.00 0.00 0.00 0.00 0.00 0.00 0.00 0.00 0.01 0.01 0.01 0.01 0.01 0.02 0.03 0.04 0.05 0.05 0.08 0.08 0.07 0.08 0.09 0.10 0.10 0.09 0.08 0.09 0.10 0.09 0.08 0.09 0.08 0.10 0.08 0.08 0.09 0.11
0.00 0.00 0.00 0.00 0.00 0.00 0.00 0.00 0.00 0.00 0.00 0.00 0.00 0.00 0.00 0.00 0.00 0.00 0.01 0.01 0.01 0.01 0.01 0.02 0.02 0.03 0.03 0.05 0.05 0.06 0.06 0.06 0.08 0.07 0.07 0.07 0.08 0.08 0.06 0.07 0.08 0.08 0.09 0.10 0.12 0.11 0.09 0.10 0.10
0.00 0.00 0.00 0.00 0.00 0.00 0.00 0.00 0.00 0.00 0.00 0.00 0.00 0.00 0.00 0.00 0.00 0.00 0.01 0.01 0.01 0.01 0.01 0.02 0.03 0.05 0.05 0.05 0.04 0.04 0.05 0.05 0.06 0.07 0.06 0.06 0.05 0.06 0.07 0.06 0.07 0.07 0.06 0.06 0.07 0.07 0.07 0.07 0.08
0.00 0.00 0.00 0.00 0.00 0.00 0.00 0.00 0.00 0.00 0.00 0.00 0.00 0.00 0.00 0.00 0.00 0.00 0.01 0.02 0.01 0.01 0.01 0.02 0.03 0.04 0.05 0.04 0.03 0.03 0.04 0.05 0.07 0.06 0.06 0.07 0.06 0.06 0.07 0.07 0.08 0.07 0.07 0.06 0.06 0.06 0.07 0.07 0.07
0.00 0.00 0.00 0.00 0.00 0.00 0.00 0.00 0.00 0.00 0.00 0.00 0.00 0.00 0.00 0.00 0.00 0.00 0.02 0.03 0.01 0.01 0.01 0.01 0.02 0.03 0.05 0.04 0.02 0.03 0.03 0.05 0.06 0.06 0.07 0.07 0.06 0.05 0.05 0.05 0.06 0.06 0.06 0.07 0.06 0.06 0.06 0.06 0.06
MSLP
1010.08 1010.49 1011.01 1011.55 1012.01 1012.34 1012.51 1012.54 1012.50 1012.44 1012.42 1012.48 1012.61 1012.77 1012.91 1012.98 1012.96 1012.87 1012.74 1012.65 1012.68 1012.85 1013.21 1013.70 1014.28 1014.84 1015.31 1015.62 1015.76 1015.74 1015.64 1015.53 1015.47 1015.50 1015.65 1015.89 1016.16 1016.42 1016.62 1016.73 1016.77 1016.76 1016.75 1016.76 1016.83 1016.95 1017.09 1017.24 1017.36
1010.13 1010.66 1011.27 1011.84 1012.30 1012.58 1012.67 1012.60 1012.44 1012.27 1012.16 1012.15 1012.23 1012.37 1012.52 1012.61 1012.62 1012.55 1012.46 1012.41 1012.48 1012.70 1013.11 1013.67 1014.32 1014.95 1015.49 1015.86 1016.05 1016.08 1015.99 1015.88 1015.80 1015.80 1015.90 1016.07 1016.28 1016.47 1016.61 1016.69 1016.71 1016.71 1016.72 1016.78 1016.89 1017.06 1017.25 1017.42 1017.54
1010.33 1010.94 1011.60 1012.18 1012.60 1012.80 1012.78 1012.59 1012.31 1012.05 1011.87 1011.82 1011.90 1012.06 1012.23 1012.36 1012.41 1012.38 1012.32 1012.28 1012.36 1012.60 1013.03 1013.62 1014.30 1014.98 1015.57 1016.00 1016.26 1016.34 1016.29 1016.20 1016.12 1016.10 1016.15 1016.27 1016.41 1016.54 1016.63 1016.67 1016.68 1016.70 1016.74 1016.85 1017.03 1017.24 1017.46 1017.65 1017.77
1010.66 1011.32 1011.99 1012.53 1012.87 1012.96 1012.83 1012.52 1012.15 1011.81 1011.60 1011.55 1011.65 1011.85 1012.08 1012.28 1012.37 1012.38 1012.34 1012.31 1012.37 1012.60 1013.01 1013.58 1014.26 1014.96 1015.58 1016.07 1016.37 1016.52 1016.53 1016.47 1016.41 1016.38 1016.41 1016.48 1016.56 1016.64 1016.69 1016.71 1016.73 1016.77 1016.87 1017.03 1017.26 1017.52 1017.77 1017.96 1018.07
1011.06 1011.74 1012.37 1012.84 1013.07 1013.05 1012.79 1012.39 1011.94 1011.56 1011.35 1011.33 1011.49 1011.77 1012.08 1012.34 1012.50 1012.55 1012.52 1012.49 1012.53 1012.71 1013.08 1013.61 1014.26 1014.94 1015.57 1016.08 1016.43 1016.62 1016.68 1016.68 1016.64 1016.63 1016.65 1016.69 1016.75 1016.80 1016.83 1016.85 1016.88 1016.96 1017.11 1017.33 1017.60 1017.90 1018.16 1018.35 1018.43
1011.47 1012.11 1012.66 1013.03 1013.15 1013.01 1012.65 1012.16 1011.68 1011.30 1011.12 1011.17 1011.41 1011.79 1012.19 1012.53 1012.76 1012.85 1012.84 1012.80 1012.81 1012.95 1013.25 1013.72 1014.31 1014.95 1015.56 1016.06 1016.43 1016.66 1016.77 1016.81 1016.81 1016.82 1016.85 1016.90 1016.95 1016.99 1017.03 1017.07 1017.14 1017.26 1017.45 1017.71 1018.02 1018.33 1018.59 1018.76 1018.82
1011.79 1012.36 1012.81 1013.06 1013.06 1012.81 1012.37 1011.84 1011.35 1011.02 1010.91 1011.04 1011.39 1011.86 1012.36 1012.79 1013.08 1013.21 1013.23 1013.19 1013.18 1013.27 1013.52 1013.92 1014.45 1015.03 1015.59 1016.07 1016.43 1016.67 1016.80 1016.88 1016.92 1016.96 1017.02 1017.08 1017.15 1017.22 1017.27 1017.34 1017.44 1017.60 1017.83 1018.12 1018.44 1018.76 1019.01 1019.16 1019.18
1011.99 1012.46 1012.79 1012.91 1012.79 1012.45 1011.96 1011.43 1010.98 1010.71 1010.69 1010.93 1011.37 1011.94 1012.53 1013.04 1013.39 1013.57 1013.62 1013.60 1013.58 1013.65 1013.86 1014.20 1014.66 1015.17 1015.67 1016.10 1016.44 1016.67 1016.81 1016.91 1016.98 1017.06 1017.15 1017.25 1017.35 1017.44 1017.53 1017.62 1017.76 1017.94 1018.18 1018.48 1018.80 1019.11 1019.34 1019.47 1019.48
1012.07 1012.43 1012.62 1012.61 1012.39 1011.99 1011.48 1010.97 1010.57 1010.39 1010.47 1010.80 1011.34 1012.00 1012.66 1013.23 1013.64 1013.87 1013.96 1013.96 1013.97 1014.04 1014.22 1014.52 1014.92 1015.36 1015.80 1016.18 1016.47 1016.68 1016.82 1016.92 1017.01 1017.12 1017.25 1017.38 1017.52 1017.64 1017.76 1017.89 1018.03 1018.22 1018.47 1018.76 1019.06 1019.34 1019.55 1019.66 1019.66
1012.08 1012.30 1012.36 1012.24 1011.93 1011.48 1010.97 1010.50 1010.17 1010.08 1010.25 1010.68 1011.29 1012.01 1012.72 1013.34 1013.79 1014.07 1014.20 1014.26 1014.29 1014.38 1014.56 1014.85 1015.21 1015.60 1015.97 1016.29 1016.54 1016.71 1016.84 1016.94 1017.05 1017.18 1017.34 1017.51 1017.68 1017.83 1017.97 1018.11 1018.26 1018.44 1018.67 1018.92 1019.20 1019.44 1019.63 1019.73 1019.74
1012.07 1012.17 1012.11 1011.88 1011.49 1011.01 1010.51 1010.09 1009.84 1009.82 1010.07 1010.56 1011.22 1011.97 1012.71 1013.35 1013.83 1014.16 1014.34 1014.44 1014.53 1014.66 1014.87 1015.15 1015.49 1015.84 1016.17 1016.44 1016.65 1016.79 1016.89 1016.99 1017.11 1017.26 1017.44 1017.64 1017.83 1018.01 1018.17 1018.31 1018.44 1018.60 1018.79 1019.01 1019.24 1019.45 1019.62 1019.72 1019.73
1012.13 1012.11 1011.94 1011.61 1011.17 1010.67 1010.18 1009.80 1009.60 1009.65 1009.94 1010.46 1011.14 1011.89 1012.63 1013.28 1013.78 1014.13 1014.37 1014.53 1014.68 1014.86 1015.11 1015.41 1015.74 1016.08 1016.38 1016.61 1016.78 1016.90 1016.99 1017.08 1017.20 1017.37 1017.57 1017.79 1018.01 1018.20 1018.36 1018.48 1018.60 1018.73 1018.87 1019.04 1019.23 1019.41 1019.57 1019.66 1019.70
1012.30 1012.18 1011.91 1011.51 1011.02 1010.49 1010.02 1009.67 1009.50 1009.58 1009.89 1010.41 1011.07 1011.80 1012.51 1013.14 1013.65 1014.03 1014.31 1014.53 1014.74 1014.98 1015.27 1015.60 1015.95 1016.28 1016.57 1016.79 1016.94 1017.04 1017.13 1017.22 1017.35 1017.53 1017.74 1017.98 1018.20 1018.40 1018.55 1018.67 1018.76 1018.85 1018.96 1019.08 1019.23 1019.39 1019.52 1019.62 1019.68
1012.57 1012.38 1012.03 1011.57 1011.04 1010.51 1010.03 1009.69 1009.54 1009.62 1009.91 1010.40 1011.02 1011.70 1012.37 1012.97 1013.47 1013.87 1014.19 1014.46 1014.72 1015.02 1015.35 1015.71 1016.09 1016.43 1016.72 1016.95 1017.11 1017.22 1017.31 1017.41 1017.55 1017.73 1017.96 1018.19 1018.42 1018.61 1018.76 1018.86 1018.93 1018.99 1019.06 1019.15 1019.27 1019.41 1019.54 1019.65 1019.72
1012.92 1012.67 1012.27 1011.77 1011.22 1010.67 1010.20 1009.85 1009.69 1009.74 1009.99 1010.42 1010.97 1011.59 1012.20 1012.77 1013.26 1013.67 1014.01 1014.33 1014.64 1014.98 1015.35 1015.75 1016.15 1016.52 1016.84 1017.09 1017.27 1017.40 1017.51 1017.63 1017.78 1017.97 1018.18 1018.41 1018.63 1018.81 1018.95 1019.04 1019.09 1019.13 1019.19 1019.26 1019.36 1019.49 1019.62 1019.74 1019.84
1013.28 1012.99 1012.56 1012.04 1011.48 1010.94 1010.46 1010.11 1009.92 1009.92 1010.10 1010.45 1010.92 1011.47 1012.02 1012.55 1013.03 1013.44 1013.81 1014.15 1014.50 1014.88 1015.28 1015.71 1016.14 1016.54 1016.90 1017.18 1017.41 1017.58 1017.72 1017.86 1018.02 1018.20 1018.40 1018.61 1018.81 1018.97 1019.10 1019.18 1019.23 1019.26 1019.31 1019.38 1019.48 1019.61 1019.75 1019.88 1020.00
1013.59 1013.28 1012.85 1012.34 1011.80 1011.27 1010.80 1010.43 1010.20 1010.13 1010.23 1010.49 1010.87 1011.32 1011.82 1012.31 1012.76 1013.18 1013.57 1013.94 1014.32 1014.72 1015.15 1015.60 1016.06 1016.49 1016.89 1017.23 1017.50 1017.73 1017.91 1018.07 1018.24 1018.40 1018.58 1018.76 1018.93 1019.07 1019.17 1019.24 1019.30 1019.35 1019.40 1019.49 1019.60 1019.74 1019.89 1020.04 1020.16
1013.81 1013.50 1013.10 1012.64 1012.14 1011.65 1011.19 1010.80 1010.51 1010.36 1010.37 1010.51 1010.79 1011.15 1011.58 1012.03 1012.48 1012.90 1013.31 1013.70 1014.09 1014.51 1014.95 1015.42 1015.90 1016.37 1016.81 1017.21 1017.55 1017.82 1018.05 1018.24 1018.40 1018.55 1018.70 1018.83 1018.96 1019.06 1019.15 1019.22 1019.29 1019.36 1019.44 1019.55 1019.68 1019.84 1020.00 1020.16 1020.30
1013.92 1013.65 1013.31 1012.93 1012.50 1012.06 1011.62 1011.21 1010.86 1010.62 1010.51 1010.53 1010.69 1010.96 1011.32 1011.74 1012.17 1012.61 1013.03 1013.44 1013.84 1014.26 1014.71 1015.18 1015.68 1016.18 1016.66 1017.12 1017.52 1017.85 1018.12 1018.34 1018.50 1018.63 1018.73 1018.82 1018.90 1018.97 1019.04 1019.11 1019.19 1019.28 1019.40 1019.54 1019.70 1019.88 1020.06 1020.22 1020.36
1013.96 1013.75 1013.52 1013.24 1012.91 1012.53 1012.12 1011.68 1011.27 1010.91 1010.67 1010.55 1010.58 1010.76 1011.05 1011.43 1011.86 1012.31 1012.75 1013.17 1013.59 1014.01 1014.45 1014.92 1015.41 1015.93 1016.45 1016.95 1017.41 1017.80 1018.12 1018.36 1018.52 1018.63 1018.69 1018.73 1018.76 1018.80 1018.85 1018.92 1019.02 1019.15 1019.30 1019.47 1019.66 1019.85 1020.04 1020.21 1020.35
1013.94 1013.85 1013.74 1013.59 1013.38 1013.08 1012.69 1012.22 1011.73 1011.25 1010.85 1010.59 1010.48 1010.55 1010.78 1011.13 1011.56 1012.02 1012.49 1012.93 1013.36 1013.77 1014.20 1014.64 1015.13 1015.65 1016.19 1016.72 1017.23 1017.67 1018.03 1018.29 1018.47 1018.56 1018.59 1018.59 1018.58 1018.59 1018.62 1018.70 1018.82 1018.98 1019.16 1019.37 1019.58 1019.78 1019.96 1020.12 1020.25
1013.92 1013.95 1014.00 1014.01 1013.92 1013.70 1013.33 1012.83 1012.24 1011.62 1011.07 1010.65 1010.41 1010.37 1010.54 1010.86 1011.30 1011.79 1012.29 1012.76 1013.19 1013.59 1013.99 1014.40 1014.86 1015.36 1015.90 1016.45 1016.98 1017.47 1017.86 1018.16 1018.34 1018.43 1018.44 1018.41 1018.38 1018.37 1018.40 1018.48 1018.62 1018.81 1019.02 1019.24 1019.46 1019.66 1019.84 1019.98 1020.08
1013.88 1014.08 1014.29 1014.46 1014.50 1014.35 1014.00 1013.45 1012.76 1012.01 1011.30 1010.73 1010.36 1010.23 1010.34 1010.65 1011.11 1011.63 1012.16 1012.66 1013.10 1013.48 1013.85 1014.22 1014.63 1015.09 1015.60 1016.15 1016.70 1017.21 1017.64 1017.96 1018.16 1018.25 1018.27 1018.23 1018.18 1018.16 1018.20 1018.29 1018.45 1018.65 1018.88 1019.12 1019.33 1019.52 1019.68 1019.79 1019.87
1013.83 1014.19 1014.58 1014.89 1015.04 1014.96 1014.62 1014.02 1013.24 1012.36 1011.52 1010.82 1010.34 1010.14 1010.21 1010.52 1011.00 1011.56 1012.13 1012.65 1013.10 1013.47 1013.79 1014.10 1014.45 1014.85 1015.33 1015.85 1016.39 1016.91 1017.36 1017.70 1017.93 1018.04 1018.07 1018.04 1018.00 1017.98 1018.02 1018.12 1018.29 1018.51 1018.74 1018.98 1019.18 1019.35 1019.48 1019.56 1019.62
1013.74 1014.25 1014.78 1015.22 1015.47 1015.44 1015.10 1014.46 1013.61 1012.64 1011.69 1010.89 1010.34 1010.08 1010.14 1010.46 1010.97 1011.58 1012.19 1012.73 1013.18 1013.53 1013.80 1014.06 1014.33 1014.66 1015.07 1015.55 1016.07 1016.58 1017.04 1017.40 1017.65 1017.79 1017.84 1017.82 1017.80 1017.79 1017.84 1017.96 1018.13 1018.35 1018.58 1018.80 1018.99 1019.13 1019.22 1019.28 1019.31
1013.57 1014.20 1014.84 1015.38 1015.69 1015.69 1015.36 1014.71 1013.81 1012.78 1011.78 1010.93 1010.34 1010.08 1010.14 1010.48 1011.02 1011.67 1012.31 1012.87 1013.32 1013.64 1013.87 1014.05 1014.25 1014.51 1014.85 1015.27 1015.74 1016.23 1016.68 1017.06 1017.32 1017.49 1017.56 1017.57 1017.56 1017.57 1017.63 1017.76 1017.93 1018.14 1018.36 1018.57 1018.73 1018.84 1018.91 1018.94 1018.96
1013.32 1014.02 1014.72 1015.30 1015.64 1015.67 1015.35 1014.70 1013.80 1012.77 1011.77 1010.92 1010.35 1010.10 1010.18 1010.56 1011.13 1011.80 1012.46 1013.03 1013.46 1013.76 1013.94 1014.07 1014.19 1014.37 1014.64 1014.99 1015.41 1015.86 1016.30 1016.67 1016.94 1017.12 1017.21 1017.25 1017.27 1017.29 1017.37 1017.49 1017.67 1017.87 1018.08 1018.25 1018.39 1018.48 1018.52 1018.53 1018.54
1013.00 1013.71 1014.40 1014.98 1015.32 1015.35 1015.04 1014.42 1013.56 1012.59 1011.64 1010.86 1010.34 1010.14 1010.26 1010.66 1011.25 1011.93 1012.59 1013.15 1013.56 1013.83 1013.97 1014.05 1014.12 1014.23 1014.43 1014.72 1015.09 1015.49 1015.89 1016.24 1016.52 1016.70 1016.81 1016.87 1016.90 1016.95 1017.03 1017.16 1017.34 1017.53 1017.72 1017.87 1017.99 1018.05 1018.07 1018.07 1018.07
1012.65 1013.29 1013.92 1014.43 1014.73 1014.75 1014.47 1013.90 1013.13 1012.26 1011.42 1010.74 1010.31 1010.18 1010.34 1010.76 1011.36 1012.02 1012.65 1013.19 1013.57 1013.81 1013.93 1013.97 1014.00 1014.08 1014.22 1014.46 1014.77 1015.12 1015.48 1015.81 1016.06 1016.25 1016.36 1016.44 1016.49 1016.56 1016.66 1016.80 1016.96 1017.15 1017.32 1017.46 1017.55 1017.60 1017.60 1017.59 1017.59
1012.31 1012.82 1013.32 1013.72 1013.95 1013.94 1013.68 1013.19 1012.53 1011.80 1011.11 1010.57 1010.25 1010.20 1010.40 1010.83 1011.40 1012.02 1012.62 1013.11 1013.47 1013.68 1013.79 1013.82 1013.84 1013.89 1014.02 1014.22 1014.48 1014.79 1015.11 1015.39 1015.63 1015.80 1015.92 1016.00 1016.08 1016.17 1016.29 1016.44 1016.62 1016.80 1016.96 1017.09 1017.16 1017.19 1017.17 1017.15 1017.14
Thickness
5833 5838 5840 5835 5826 5814 5798 5804 5812 5810 5809 5815 5814 5809 5803 5797 5790 5779 5798 5805 5800 5795 5787 5779 5776 5774 5773 5771 5771 5769 5768 5767 5765 5764 5764 5763 5762 5761 5760 5760 5759 5759 5758 5757 5756 5756 5755 5754 5754
5843 5842 5838 5836 5823 5798 5794 5809 5809 5810 5814 5818 5814 5810 5804 5796 5799 5796 5800 5801 5799 5795 5788 5781 5774 5773 5771 5770 5769 5767 5766 5765 5764 5763 5762 5761 5760 5759 5758 5758 5757 5757 5756 5755 5755 5754 5753 5752 5752
5845 5844 5838 5834 5817 5802 5798 5812 5812 5817 5821 5817 5810 5811 5804 5794 5797 5798 5802 5801 5798 5793 5787 5778 5773 5771 5769 5768 5767 5766 5764 5763 5762 5761 5760 5759 5758 5757 5757 5756 5755 5755 5754 5754 5753 5752 5751 5751 5750
5846 5844 5841 5831 5811 5814 5816 5819 5821 5817 5819 5819 5813 5803 5803 5803 5804 5805 5803 5801 5797 5791 5787 5777 5771 5769 5768 5766 5765 5764 5763 5761 5761 5760 5759 5757 5756 5756 5755 5754 5754 5753 5752 5752 5751 5750 5749 5749 5748
5850 5843 5832 5821 5815 5821 5828 5828 5826 5819 5815 5816 5814 5801 5795 5802 5809 5807 5802 5800 5796 5792 5787 5776 5770 5767 5766 5764 5763 5762 5761 5760 5759 5758 5757 5756 5755 5754 5753 5752 5752 5751 5751 5750 5749 5748 5748 5747 5746
5845 5843 5826 5813 5814 5825 5832 5834 5830 5822 5818 5817 5813 5802 5793 5802 5804 5803 5802 5798 5796 5792 5786 5775 5768 5765 5764 5762 5761 5760 5759 5758 5757 5756 5755 5754 5753 5752 5751 5751 5750 5750 5749 5748 5747 5746 5746 5745 5744
5839 5837 5823 5821 5817 5821 5830 5839 5832 5825 5819 5818 5819 5804 5795 5799 5803 5803 5800 5797 5794 5791 5786 5776 5771 5765 5762 5761 5760 5758 5757 5756 5755 5754 5753 5752 5751 5751 5750 5749 5748 5748 5747 5746 5746 5745 5744 5744 5743
5849 5842 5828 5824 5819 5821 5836 5839 5837 5831 5823 5829 5825 5807 5797 5800 5803 5801 5797 5793 5790 5787 5785 5778 5775 5770 5766 5762 5758 5757 5756 5755 5754 5753 5752 5751 5750 5749 5749 5748 5747 5746 5745 5745 5744 5743 5743 5742 5741
5850 5837 5822 5823 5821 5826 5840 5836 5837 5841 5831 5827 5826 5823 5819 5809 5803 5796 5790 5786 5783 5781 5780 5779 5776 5770 5768 5765 5759 5756 5755 5753 5752 5752 5750 5750 5752 5751 5749 5747 5745 5745 5744 5743 5743 5742 5741 5741 5740
5845 5830 5825 5834 5837 5836 5838 5837 5837 5833 5826 5821 5818 5819 5817 5808 5801 5794 5789 5784 5780 5777 5776 5775 5773 5769 5768 5765 5760 5758 5758 5755 5755 5753 5752 5751 5750 5750 5749 5745 5744 5744 5743 5742 5742 5741 5741 5743 5743
5840 5831 5836 5842 5846 5844 5840 5841 5844 5834 5825 5826 5821 5814 5811 5806 5800 5797 5792 5788 5784 5779 5775 5773 5770 5767 5767 5763 5761 5759 5758 5755 5754 5752 5751 5750 5750 5749 5748 5747 5744 5744 5744 5744 5742 5743 5745 5745 5743
5836 5838 5841 5844 5849 5845 5842 5843 5841 5839 5836 5842 5837 5825 5815 5807 5802 5799 5794 5790 5786 5780 5774 5772 5768 5764 5762 5762 5760 5758 5757 5756 5755 5751 5750 5750 5750 5749 5748 5747 5746 5746 5746 5744 5745 5743 5743 5743 5742
5834 5836 5844 5850 5852 5850 5847 5844 5841 5840 5845 5845 5838 5826 5818 5812 5806 5803 5798 5792 5786 5780 5775 5771 5766 5762 5759 5757 5757 5757 5756 5756 5753 5751 5750 5749 5749 5748 5747 5746 5745 5747 5746 5745 5743 5744 5742 5742 5742
5836 5839 5844 5849 5850 5849 5842 5844 5841 5840 5844 5839 5831 5824 5820 5814 5810 5803 5796 5790 5785 5780 5775 5771 5764 5760 5757 5755 5754 5755 5755 5752 5753 5751 5750 5748 5748 5747 5746 5745 5744 5745 5745 5745 5744 5743 5742 5742 5742
5840 5834 5839 5844 5846 5847 5844 5834 5836 5843 5842 5833 5828 5824 5819 5815 5810 5803 5798 5791 5786 5780 5775 5769 5764 5760 5756 5754 5753 5753 5753 5753 5752 5750 5748 5746 5746 5745 5745 5746 5744 5744 5743 5742 5742 5742 5742 5742 5742
5836 5829 5823 5836 5841 5844 5836 5824 5838 5846 5839 5830 5827 5822 5816 5812 5810 5805 5800 5793 5787 5781 5775 5770 5767 5761 5757 5753 5751 5752 5752 5752 5750 5749 5748 5746 5745 5744 5743 5745 5746 5743 5743 5742 5742 5743 5742 5742 5742
5824 5818 5819 5827 5839 5839 5833 5826 5838 5845 5838 5830 5826 5822 5816 5810 5808 5805 5800 5794 5788 5782 5775 5770 5767 5762 5758 5753 5750 5750 5750 5749 5749 5748 5748 5746 5745 5744 5744 5745 5745 5743 5743 5743 5744 5744 5743 5742 5741
5812 5816 5815 5818 5832 5834 5830 5830 5838 5841 5838 5832 5827 5822 5816 5811 5807 5806 5800 5795 5789 5783 5777 5772 5767 5763 5759 5755 5750 5748 5748 5748 5748 5748 5747 5746 5745 5744 5744 5744 5743 5743 5743 5742 5742 5740 5740 5740 5740
5818 5815 5813 5819 5832 5829 5827 5828 5834 5838 5835 5831 5826 5822 5817 5813 5812 5807 5801 5796 5790 5783 5778 5773 5768 5763 5759 5756 5752 5749 5748 5748 5748 5747 5746 5745 5744 5744 5742 5744 5743 5742 5742 5741 5742 5741 5739 5739 5740
5813 5810 5813 5820 5829 5825 5825 5827 5835 5837 5833 5832 5828 5823 5819 5814 5809 5804 5800 5795 5790 5784 5779 5774 5770 5766 5762 5759 5755 5752 5751 5750 5749 5747 5746 5744 5744 5744 5744 5742 5742 5742 5741 5740 5740 5738 5738 5739 5739
5810 5810 5813 5812 5821 5827 5822 5820 5827 5834 5835 5833 5832 5829 5824 5818 5811 5804 5799 5795 5791 5785 5781 5778 5773 5769 5764 5761 5756 5753 5750 5748 5748 5747 5746 5744 5744 5743 5743 5743 5742 5742 5742 5740 5739 5739 5737 5736 5738
5803 5818 5814 5811 5809 5813 5812 5805 5821 5829 5827 5828 5828 5826 5823 5819 5814 5807 5801 5795 5792 5789 5785 5780 5775 5770 5766 5762 5758 5754 5751 5748 5749 5749 5747 5745 5744 5743 5743 5742 5742 5741 5742 5740 5740 5741 5739 5735 5735
5812 5818 5814 5812 5808 5805 5810 5801 5818 5826 5820 5825 5826 5826 5824 5820 5816 5808 5803 5798 5794 5790 5786 5781 5776 5771 5767 5763 5760 5755 5753 5752 5751 5749 5747 5745 5745 5743 5743 5743 5742 5741 5741 5741 5740 5739 5738 5737 5735
5815 5810 5808 5809 5809 5789 5801 5794 5803 5824 5821 5823 5825 5824 5822 5820 5816 5809 5805 5799 5793 5789 5785 5781 5776 5770 5767 5764 5761 5756 5754 5751 5749 5747 5746 5745 5745 5744 5743 5743 5742 5741 5742 5741 5739 5738 5737 5737 5736
5808 5796 5785 5783 5785 5789 5802 5794 5805 5825 5827 5825 5824 5823 5822 5819 5814 5807 5801 5796 5791 5787 5784 5780 5775 5770 5768 5764 5761 5758 5755 5752 5749 5748 5746 5745 5745 5744 5744 5744 5742 5742 5741 5740 5739 5738 5738 5737 5734
5803 5804 5784 5775 5782 5794 5793 5792 5815 5829 5829 5829 5828 5825 5820 5817 5814 5807 5802 5797 5792 5788 5784 5780 5775 5771 5768 5764 5761 5758 5755 5753 5752 5749 5748 5746 5745 5745 5744 5742 5741 5740 5740 5739 5738 5738 5736 5735 5734
5798 5800 5817 5799 5790 5783 5795 5803 5819 5827 5824 5825 5824 5820 5816 5814 5811 5806 5802 5797 5791 5787 5783 5780 5775 5770 5767 5764 5760 5756 5754 5751 5750 5749 5748 5747 5745 5744 5742 5740 5739 5739 5738 5737 5736 5735 5734 5733 5732
5810 5810 5799 5790 5771 5770 5785 5792 5802 5814 5818 5819 5818 5816 5815 5812 5809 5805 5801 5796 5791 5787 5783 5779 5775 5770 5767 5763 5759 5756 5753 5751 5749 5748 5745 5744 5743 5742 5740 5738 5737 5737 5736 5735 5734 5733 5731 5730 5728
5791 5793 5796 5796 5794 5777 5776 5793 5823 5820 5822 5819 5818 5818 5815 5812 5808 5803 5799 5795 5791 5786 5782 5777 5773 5769 5765 5761 5758 5754 5752 5750 5747 5745 5743 5742 5740 5738 5737 5736 5735 5734 5733 5732 5731 5730 5728 5726 5724
5805 5801 5795 5781 5778 5784 5784 5799 5830 5827 5827 5823 5820 5818 5816 5812 5809 5803 5798 5792 5787 5783 5779 5776 5772 5768 5764 5760 5756 5752 5750 5747 5745 5743 5741 5739 5737 5736 5735 5733 5732 5731 5730 5729 5728 5726 5724 5722 5720